Weather History for Deming, NM

Change the Weather History Date:

Friday, March 21, 2014

  Actual Average Record
Temperature  
Mean Temperature 58 °F 52 °F  
Max Temperature 76 °F 69 °F 86 °F (1997)
Min Temperature 39 °F 36 °F 24 °F (1955)
Degree Days  
Heating Degree Days 7    
Growing Degree Days 8 (Base 50)    
Moisture  
Dew Point 13 °F    
Average Humidity 21    
Maximum Humidity 33    
Minimum Humidity 9    
Precipitation  
Precipitation 0.00 in 0.01 in 0.17 in (1991)
Month to date precipitation 0.38 0.31  
Year to date precipitation 0.38 1.51  
Sea Level Pressure  
Sea Level Pressure 29.81 in    
Wind  
Wind Speed 9 mph (West)    
Max Wind Speed 24 mph    
Max Gust Speed 33 mph    
Visibility 10 miles    
Events      
T = Trace of Precipitation, MM = Missing Value Source: NWS Daily Summary

Daily Weather History Graph

Daily Weather History Graph

Search for Another Location

Airport:

Trip Planner

Search our weather history database for the weather conditions in past years. The results will help you decide how hot, cold, wet, or windy it might be!

Date:

Astronomy

Mar. 21, 2014 Rise Set
Actual Time 7:13 AM MDT 7:23 PM MDT
Civil Twilight 6:48 AM MDT 7:47 PM MDT
Nautical Twilight 6:20 AM MDT 8:16 PM MDT
Astronomical Twilight 5:51 AM MDT 8:45 PM MDT
Moon No Moon Rise 10:23 AM MDT
Length of Visible Light 12h 58m
Length of Day
12h 09m
Waning Gibbous, 75% of the Moon is Illuminated
Mar 21
Waning Gibbous
Mar 23
Last Quarter
Mar 30
New
Apr 7
First Quarter
Apr 15
Full

Hourly Weather History & Observations

Time (MDT) Temp. Windchill Dew Point Humidity Pressure Visibility Wind Dir Wind Speed Gust Speed Precip Events Conditions
12:53 AM 53.1 °F - 15.1 °F 22% 29.81 in 10.0 mi WNW 6.9 mph - N/A   Clear
1:53 AM 51.1 °F - 12.9 °F 22% 29.81 in 10.0 mi Calm Calm - N/A   Clear
2:53 AM 51.1 °F - 14.0 °F 23% 29.79 in 10.0 mi West 3.5 mph - N/A   Clear
3:53 AM 46.9 °F - 12.9 °F 25% 29.79 in 10.0 mi SSW 3.5 mph - N/A   Clear
4:53 AM 46.0 °F 44.8 °F 14.0 °F 28% 29.79 in 10.0 mi West 3.5 mph - N/A   Clear
5:53 AM 45.0 °F 41.8 °F 15.1 °F 30% 29.81 in 10.0 mi West 5.8 mph - N/A   Clear
6:53 AM 41.0 °F - 12.9 °F 32% 29.83 in 10.0 mi Calm Calm - N/A   Clear
7:53 AM 43.0 °F - 15.1 °F 32% 29.86 in 10.0 mi Calm Calm - N/A   Clear
8:53 AM 52.0 °F - 15.1 °F 23% 29.87 in 10.0 mi SW 4.6 mph - N/A   Clear
9:53 AM 62.1 °F - 15.1 °F 16% 29.87 in 10.0 mi WSW 9.2 mph - N/A   Clear
10:53 AM 68.0 °F - 17.1 °F 14% 29.87 in 10.0 mi West 16.1 mph 20.7 mph N/A   Clear
11:53 AM 70.0 °F - 16.0 °F 13% 29.86 in 10.0 mi WSW 16.1 mph 24.2 mph N/A   Clear
12:53 PM 72.0 °F - 15.1 °F 11% 29.84 in 10.0 mi SW 15.0 mph 19.6 mph N/A   Clear
1:53 PM 73.9 °F - 14.0 °F 10% 29.81 in 10.0 mi West 18.4 mph 29.9 mph N/A   Clear
2:53 PM 75.0 °F - 12.9 °F 9% 29.77 in 10.0 mi WSW 13.8 mph 27.6 mph N/A   Clear
3:53 PM 75.9 °F - 12.9 °F 9% 29.76 in 10.0 mi WSW 15.0 mph 26.5 mph N/A   Clear
4:53 PM 75.0 °F - 14.0 °F 10% 29.76 in 10.0 mi West 16.1 mph 26.5 mph N/A   Clear
5:53 PM 73.9 °F - 12.0 °F 9% 29.75 in 10.0 mi West 11.5 mph - N/A   Clear
6:53 PM 72.0 °F - 10.9 °F 10% 29.77 in 10.0 mi West 15.0 mph 24.2 mph N/A   Clear
7:53 PM 66.9 °F - 12.0 °F 12% 29.80 in 10.0 mi West 9.2 mph - N/A   Clear
8:53 PM 64.0 °F - 10.0 °F 12% 29.82 in 10.0 mi West 9.2 mph - N/A   Clear
9:53 PM 57.0 °F - 10.0 °F 15% 29.83 in 10.0 mi WNW 9.2 mph - N/A   Clear
10:53 PM 54.0 °F - 9.0 °F 17% 29.84 in 10.0 mi WSW 9.2 mph - N/A   Clear
11:53 PM 53.1 °F - 12.9 °F 20% 29.84 in 10.0 mi West 8.1 mph - N/A   Clear